Погода в Липецке

Россия / Липецкая область     52°36′31″N   39°35′57″E
темп.,
°C
ветер,
м/с
пор.,
м/с
влажн.,
%
обл.,
%
осадки,
мм/ч
давл.,
гПа
погр.,
м
20 сентября, пн
пн2000:00+11юв81769100 2.3 1011731
03:00+11юв81587100 4.9 1010749
06:00+10юв71394100 0.2 1010551
09:00+10вюв61091100 0.3 1010458
12:00+13вюв6884100 0.0 1010668
15:00+11вюв61191100 1.5 1010501
18:00+10вюв6129493 2.5 1011422
21:00+10вюв61195100 2.9 1011475
21 сентября, вт
вт2100:00+9юв4894100 0.3 1012444
03:00+10юв3696100 1.4 1011391
06:00+10ююв229352 0.0 101187
09:00+11ююв2286100 0.0 1012316
12:00+12ююз2377100 0.0 1011656
15:00+10з2391100 0.7 1011229
18:00+11сз1286100 0.2 101141
21:00+10з2289100 0.5 101171
22 сентября, ср
ср2200:00+9з3591100 0.3 1011222
03:00+8зсз5791100 0.3 1010386
06:00+7зюз3691100 0.3 1010392
09:00+7зюз3591100 2.3 1011354
12:00+9зюз347398 1.1 1011800
15:00+9юз3475100 1.1 1012662
18:00+8юз3585100 0.2 1013445
21:00+8ю3589100 0.3 1014313
23 сентября, чт
чт2300:00+7ю3590100 0.1 1015273
03:00+7ю2490100 0.1 1015209
06:00+7ююв2491100 0.0 1015162
09:00+8ююв2482100 0.0 1016409
12:00+11ю3466100 0.2 10151184
15:00+10ююз3468100 0.5 1015848
18:00+9зюз1173100 0.1 101517
21:00+9сз117887 0.1 101627
24 сентября, пт
пт2400:00+8зюз1180100 0.0 101617
03:00+7зсз1185100 0.0 101513
06:00+6ссв118793 0.0 101514
09:00+8ссв1182100 0.0 101496
12:00+9з227398 0.0 1013519
15:00+10зюз237092 0.0 1012566
18:00+9юз2573100 0.0 1012290
21:00+8ююз377899 0.0 1012225